CZ-2D R/B

Satellite information

Favourite Embed

Satellite Type and Status

ROCKET BODYIN ORBIT

Key statistics

Satellite CZ-2D R/B at a glance.

Uptime

2174

Days in orbit

Revolutions

≈ 14.4

Per day

Orbit

SSO

Sun Synchronous Orbit

Inclination

98.3

Latest

Satellite identification and parameters

Extended collection of information and parameters for CZ-2D R/B.

Object identification

Identified? True

Debris? False

Object name: CZ-2D R/B

International designator: 2019-063B

Object number (NORAD): 44548

Object ID (CCSDS): 44548

Country: PEOPLES REPUBLIC OF CHINA (PRC)

Current information (Y/N): Y

RCS size: LARGE

Orbital parameters

Period: 99.957 minutes

Inclination: 98.3067 deg

SMA: 7134.587 km

Apoapsis: 760.741 km

Periapsis: 752.163 km

RAAN: 208.1351 deg

Eccentricy: 0.00060119

Argument of periapsis: 292.8558 deg

Mean anomaly: 67.1996 deg

Mean motion: 14.40620213 rev/day

Mean motion (dot): 0.00000431 rev/day2

B* drag term: 0.00014832845 1/REarth

Two-line elements (TLE)

Creation date: Sept. 7, 2025, 3:09 a.m.

Reference frame: TEME

Reference center: EARTH

Epoch: Sept. 6, 2025, 8:57 p.m. UTC

TLE line 0: 0 CZ-2D R/B

TLE line 1: 1 44548U 19063B 25249.87292980 .00000431 00000-0 14833-3 0 9991

TLE line 2: 2 44548 98.3067 208.1351 0006012 292.8558 67.1996 14.40620213312768

Live tracking on map

Real-time ground track for satellite CZ-2D R/B.

In-orbit conjunctions

A list of the most updated potential collisions computed for object CZ-2D R/B.

Target Orbit TCA Probability of collision Miss distance Type
SL-16 DEB LEO 2024-11-29 21:23:11 0.0001020783 196.0 (m) DEBRIS
CZ-6A DEB SSO 2024-10-27 13:48:15 0.0003497199 817.0 (m) DEBRIS
NOAA 16 DEB SSO 2024-10-26 06:17:47 0.0002123517 447.0 (m) DEBRIS
NOAA 16 DEB SSO 2024-09-09 20:51:54 0.0001560733 405.0 (m) DEBRIS
PSLV R/B SSO 2024-08-15 20:02:50 0.0001583635 662.0 (m) ROCKET BODY

Associated space launch

The Yunhai-1 satellite is designed for detecting environmental elements in the atmosphere and ocean, the space environment, disaster prevention and reduction, and scientific experimentation. It is made by the Shanghai Institute of Spaceflight Technology.

CZ-2D R/B was lifted into orbit during the mission ‘Long March 2D | Yunhai-1-02’, on board a Long March 2D space rocket.

The launch took place on Sept. 25, 2019, 12:54 a.m. from Launch Area 4 (SLS-2 / 603).

For more information about the launch, click the button.

Launch to space Long March 2D | Yunhai-1-02
Long March 2D | Yunhai-1-02

Agency: N/A

Status: Launch Successful

Launch date: Sept. 25, 2019, 12:54 a.m. UTC

Rocket: Long March 2D

Launch pad: Launch Area 4 (SLS-2 / 603)

Location: Jiuquan Satellite Launch Center, People's Republic of China

...

Latest news about this satellite

News about space launch
Breakup of China’s Yunhai-1 (02) satellite linked to space debris collision

U.S. space tracking has linked the breakup of Chinese satellite Yunhai-1 (02) to a collision with a small piece of debris from a Russian satellite launch, according to NASA.


Newsletter sign-up

Weekly statistics, charts and insights to help you stay on top of the space industry.